Tracking 25710 objects as of 7-Jul-2022
HD Live streaming from Space Station
objects crossing your sky now

FENGYUN 1C DEB

Track FENGYUN 1C DEB now!
10-day predictions


NORAD ID: 31042
Int'l Code: 1999-025BEL
Perigee: 615.1 km
Apogee: 691.4 km
Inclination: 99.0 °
Period: 97.6 minutes
Semi major axis: 7024 km
RCS: 0.0041 m2 (small)
Launch date: May 10, 1999
Source: People's Republic of China (PRC)
Launch site: Taiyaun Space Center, China (TSC)

Note: This is SATELLITE DEBRIS
aabbcc
Your satellite tracking list
Your tracking list is empty




NASA's NSSDC Master Catalog

Two Line Element Set (TLE):
1 31042U 99025BEL 22187.33179382  .00006319  00000-0  93292-3 0  9998
2 31042  99.0341 323.3936 0054310 293.5994  65.9514 14.74685979810246
Source of the keplerian elements: AFSPC